Flag for Germany Weather past 2 weeks in Bonn, North Rhine-Westphalia, Germany

Now
49 °F

Low clouds.


Feels Like: 43 °F
Forecast: 38 / 44 °F
Wind: 17 mph from West

Location: Bonn-Hangelar

Current Time: Mar 31, 2015 at 11:56:53 AM

Latest Report: Mar 31, 2015 at 11:00 AM


Visibility: 19 mi

Pressure: 29.50 "Hg

Humidity: 70%

Dew point: 40 °F

Location of BonnLocation

Historic Weather in Bonn — Graph

°F

Bonn temperature yesterday

Maximum temperature yesterday: 47 °F (at 12:00 AM)
Minimum temperature yesterday: 41 °F (at 9:00 PM)
Average temperature yesterday: 44 °F

Past Weeks' High & Low Weather Summary

 TemperatureHumidityPressure
High60 °F (Mar 17, 1:00 PM)100% (Mar 19, 4:00 AM)30.40 "Hg (Mar 19, 4:00 AM)
Low32 °F (Mar 23, 2:00 AM)46% (Mar 17, 1:00 PM)29.35 "Hg (Mar 29, 6:00 PM)
Average43 °F84%30.01 "Hg
* Reported Mar 16 9:00 AM — Mar 31 10:00 AM, Bonn, Weather by CustomWeather, © 2015

Note: Actual official high and low records may vary slightly from our data, if they occured in-between our weather recording intervals... More about our weather records

Advertising

Bonn weather history for previous 24 hours

 ConditionsComfort  
Time TempWeatherWind HumidityBarometerVisibility
10:00 AM
Tue, Mar 31
49 °FRain. Low clouds.20 mph85%29.44 "Hg16 mi
9:00 AM48 °FRain. Low clouds.16 mph91%29.41 "Hg12 mi
8:00 AM48 °FRain. Overcast.17 mph92%29.38 "Hg11 mi
7:00 AM49 °FRain. Low clouds.20 mph94%29.35 "Hg6 mi
6:00 AM50 °FRain. Low clouds.17 mph93%29.35 "Hg3 mi
5:00 AM51 °FLight rain. Passing clouds.16 mph89%29.35 "Hg11 mi
4:00 AM51 °FPassing clouds.17 mph85%29.41 "Hg40 mi
3:00 AM48 °FLow clouds.17 mph92%29.47 "Hg17 mi
2:00 AM45 °FOvercast.16 mph91%29.55 "Hg13 mi
1:00 AM44 °FLow clouds.12 mph87%29.64 "Hg19 mi
12:00 AM42 °FLight rain. Low clouds.10 mph86%29.72 "Hg9 mi
11:00 PM
Mon, Mar 30
44 °FOvercast.10 mph72%29.77 "Hg25 mi
10:00 PM44 °FOvercast.8 mph69%29.83 "Hg22 mi
9:00 PM41 °FOvercast.5 mph70%29.87 "Hg28 mi
8:00 PM42 °FPassing clouds.5 mph65%29.88 "Hg28 mi
7:00 PM45 °FScattered clouds.10 mph56%29.88 "Hg16 mi
6:00 PM46 °FPartly sunny.12 mph54%29.87 "Hg9 mi
5:00 PM46 °FScattered clouds.13 mph60%29.85 "Hg25 mi
4:00 PM45 °FPartly sunny.14 mph59%29.84 "Hg25 mi
3:00 PM46 °FPartly sunny.15 mph61%29.80 "Hg19 mi
2:00 PM45 °FOvercast.14 mph72%29.78 "Hg19 mi
1:00 PM43 °FOvercast.10 mph84%29.76 "Hg19 mi
12:00 PM43 °FOvercast.14 mph70%29.72 "Hg19 mi
11:00 AM44 °FOvercast.13 mph69%29.69 "Hg25 mi
Weather by CustomWeather, © 2015

See weather overviewHow to use our weather pages